Location: Aufkirchen
(47.9603°N, 11.3653°E)
Time: 22:40:21
(UTC+02:00)

Altair - Pass Details

Date: 07 August 2021
Orbit: 1501 x 1682 km, 47.2° (Epoch: 22 September)

Event Time Altitude Azimuth Distance (km) Brightness Sun altitude
Exits shadow 01:34:25 42° 199° (SSW) 2,090 7.7 -25.5°
Maximum altitude 01:37:19 56° 150° (SSE) 1,792 7.5 -25.5°
Drops below altitude 10° 01:46:16 10° 76° (ENE) 3,677 9.7 -25.4°
Sets 01:49:20 0° 72° (ENE) 4,649 10.4 -25.3°
